Location: Newark
(49.8348°N, 24.0280°E)
Time: 15:38:15
(UTC+00:00)

Transit 2A - Pass Details

Date: 28 January 2020
Orbit: 600 x 959 km, 66.7° (Epoch: 23 February)

Event Time Altitude Azimuth Distance (km) Brightness Sun altitude
Rises 01:24:52 0° 325° (NW) 2,944 - -44.1°
Reaches altitude 10° 01:27:08 10° 331° (NNW) 2,070 - -43.7°
Maximum altitude 01:31:42 51° 48° (NE) 877 - -43.1°
Drops below altitude 10° 01:36:41 10° 124° (SE) 2,262 - -42.4°
Exits shadow 01:39:04 - 129° (SE) 3,175 9.5 -42.0°
Sets 01:39:15 0° 129° (SE) 3,246 9.5 -42.0°
